DW5164 Weather Reports


time (UTC)temp
C
wind
direction
speed
KPH
gust
KPH
rain 1hr
cm
rain 24hr
cm
rain mn
cm
humidity
%
barometer
mb
20260902004422 21 57 0.0 0.0 0.00 0.00 0.00 83 1016.6
20260902003424 21 57 1.6 3.2 0.00 0.00 0.00 82 1016.6
20260902002923 21 57 3.2 4.8 0.00 0.00 0.00 82 1016.6
20260902002421 21 57 1.6 4.8 0.00 0.00 0.00 81 1016.5
20260902001922 21 57 0.0 1.6 0.00 0.00 0.00 81 1016.5
20260902000921 21 57 1.6 4.8 0.00 0.00 0.00 81 1016.6
20260902000421 21 57 1.6 3.2 0.00 0.00 0.00 80 1016.7
20260901235420 21 57 4.8 4.8 0.00 0.00 0.00 81 1016.7
20260901234439 21 57 0.0 3.2 0.00 0.00 0.00 80 1016.6
20260901233421 21 59 3.2 4.8 0.00 0.00 0.00 82 1016.6
20260901231921 21 92 1.6 4.8 0.00 0.00 0.00 81 1016.6
20260901231422 21 92 3.2 8.0 0.00 0.00 0.00 81 1016.6
20260901230921 21 92 3.2 4.8 0.00 0.00 0.00 81 1016.5
20260901225420 21 88 3.2 8.0 0.00 0.00 0.00 82 1016.5
20260901224920 21 88 3.2 8.0 0.00 0.00 0.00 82 1016.5
20260901224421 21 80 3.2 8.0 0.00 0.00 0.00 82 1016.5
20260901223921 21 80 3.2 4.8 0.00 0.00 0.00 81 1016.5
20260901223422 22 67 3.2 4.8 0.00 0.00 0.00 80 1016.5
20260901222922 22 62 3.2 4.8 0.00 0.00 0.00 81 1016.6
20260901222422 22 40 3.2 4.8 0.00 0.00 0.00 80 1016.5
20260901221921 22 40 3.2 4.8 0.00 0.00 0.00 80 1016.5
20260901221421 22 38 3.2 4.8 0.00 0.00 0.00 79 1016.5
20260901220921 22 58 4.8 4.8 0.00 0.00 0.00 79 1016.5
20260901220422 22 43 4.8 8.0 0.00 0.00 0.00 79 1016.4
20260901215921 22 44 3.2 4.8 0.00 0.00 0.00 78 1016.4
20260901215436 22 44 4.8 8.0 0.00 0.00 0.00 79 1016.5
20260901214920 22 30 1.6 4.8 0.00 0.00 0.00 79 1016.5
20260901213421 22 71 1.6 4.8 0.00 0.00 0.00 78 1016.4
20260901212925 22 71 1.6 3.2 0.00 0.00 0.00 77 1016.4
20260901212424 22 71 3.2 4.8 0.00 0.00 0.00 78 1016.4
20260901211921 23 96 0.0 0.0 0.00 0.00 0.00 78 1016.4
20260901210922 23 96 1.6 3.2 0.00 0.00 0.00 77 1016.4
20260901210437 23 96 0.0 3.2 0.00 0.00 0.00 77 1016.4
20260901205423 23 96 1.6 3.2 0.00 0.00 0.00 76 1016.4
20260901204920 23 95 1.6 4.8 0.00 0.00 0.00 77 1016.4
20260901204422 23 86 1.6 4.8 0.00 0.00 0.00 77 1016.4
20260901203422 23 122 1.6 3.2 0.00 0.00 0.00 76 1016.4
20260901202921 23 122 3.2 4.8 0.00 0.00 0.00 75 1016.3
20260901202421 23 94 3.2 4.8 0.00 0.00 0.00 75 1016.3
20260901201920 23 84 1.6 3.2 0.00 0.00 0.00 76 1016.2
20260901201421 23 84 1.6 4.8 0.00 0.00 0.00 76 1016.3
20260901200420 24 84 3.2 4.8 0.00 0.00 0.00 75 1016.2
20260901195921 24 98 1.6 4.8 0.00 0.00 0.00 75 1016.2
20260901195420 24 107 1.6 3.2 0.00 0.00 0.00 74 1016.2
20260901194920 24 107 1.6 4.8 0.00 0.00 0.00 73 1016.2
20260901194420 25 107 3.2 4.8 0.00 0.00 0.00 72 1016.1
20260901193920 25 93 3.2 8.0 0.00 0.00 0.00 71 1016.1
20260901193420 25 96 4.8 9.7 0.00 0.00 0.00 71 1016.0
20260901192921 25 78 3.2 8.0 0.00 0.00 0.00 71 1016.0
20260901192420 25 85 3.2 4.8 0.00 0.00 0.00 71 1016.0
20260901191920 25 72 4.8 8.0 0.00 0.00 0.00 71 1016.0
20260901190921 25 90 4.8 8.0 0.00 0.00 0.00 70 1015.9
20260901190420 25 95 4.8 11.3 0.00 0.00 0.00 70 1015.8
20260901185920 25 85 6.4 11.3 0.00 0.00 0.00 70 1015.8
20260901184920 25 89 4.8 9.7 0.00 0.00 0.00 69 1015.7
20260901184420 25 88 3.2 8.0 0.00 0.00 0.00 69 1015.6
20260901183921 26 69 4.8 8.0 0.00 0.00 0.00 67 1015.6
20260901183422 26 70 4.8 4.8 0.00 0.00 0.00 67 1015.6
20260901182920 26 71 4.8 11.3 0.00 0.00 0.00 67 1015.6
20260901181920 26 63 8.0 11.3 0.00 0.00 0.00 66 1015.4
20260901181419 26 68 6.4 11.3 0.00 0.00 0.00 66 1015.3
20260901180920 26 66 4.8 11.3 0.00 0.00 0.00 66 1015.2
20260901180420 26 68 6.4 11.3 0.00 0.00 0.00 65 1015.2
20260901175420 26 69 6.4 11.3 0.00 0.00 0.00 65 1015.1
20260901174421 27 59 8.0 9.7 0.00 0.00 0.00 65 1015.1
20260901173919 27 71 4.8 9.7 0.00 0.00 0.00 65 1015.2
20260901173420 27 84 8.0 12.9 0.00 0.00 0.00 65 1015.1
20260901172920 27 79 6.4 12.9 0.00 0.00 0.00 64 1015.0
20260901172421 27 78 4.8 11.3 0.00 0.00 0.00 64 1015.1
20260901171920 27 68 4.8 9.7 0.00 0.00 0.00 64 1015.0
20260901171422 27 79 6.4 11.3 0.00 0.00 0.00 64 1014.9
20260901170924 28 79 4.8 14.5 0.00 0.00 0.00 64 1014.9
20260901170422 28 94 6.4 11.3 0.00 0.00 0.00 64 1014.8
20260901165435 28 82 11.3 16.1 0.00 0.00 0.00 63 1014.9
20260901164920 28 95 9.7 14.5 0.00 0.00 0.00 64 1014.9
20260901163419 28 85 6.4 14.5 0.00 0.00 0.00 65 1014.9
20260901162919 29 86 8.0 14.5 0.00 0.00 0.00 64 1015.0
20260901162419 29 75 9.7 19.3 0.00 0.00 0.00 64 1015.0
20260901161919 29 105 12.9 19.3 0.00 0.00 0.00 63 1015.0
20260901161419 29 94 9.7 19.3 0.00 0.00 0.00 63 1014.9
20260901160419 29 96 11.3 19.3 0.00 0.00 0.00 63 1014.9
20260901155923 30 80 9.7 19.3 0.00 0.00 0.00 63 1014.9
20260901155419 29 82 14.5 20.9 0.00 0.00 0.00 63 1015.0
20260901154919 30 86 11.3 20.9 0.00 0.00 0.00 62 1015.0
20260901154420 30 82 9.7 19.3 0.00 0.00 0.00 63 1015.0
20260901153919 30 94 4.8 19.3 0.00 0.00 0.00 62 1015.1
20260901153420 30 73 9.7 16.1 0.00 0.00 0.00 61 1015.0
20260901152922 30 95 11.3 16.1 0.00 0.00 0.00 63 1015.1
20260901152419 30 84 11.3 19.3 0.00 0.00 0.00 62 1015.1
20260901150920 30 110 11.3 19.3 0.00 0.00 0.00 61 1015.1
20260901150419 30 111 9.7 24.1 0.00 0.00 0.00 63 1015.1
20260901145920 30 124 11.3 19.3 0.00 0.00 0.00 62 1015.0
20260901145420 30 106 11.3 20.9 0.00 0.00 0.00 63 1015.0
20260901144921 30 98 14.5 24.1 0.00 0.00 0.00 62 1015.0
20260901144420 30 76 12.9 24.1 0.00 0.00 0.00 63 1015.1
20260901143919 30 72 9.7 19.3 0.00 0.00 0.00 61 1015.1
20260901143420 30 78 16.1 24.1 0.00 0.00 0.00 62 1015.2
20260901142420 30 106 11.3 19.3 0.00 0.00 0.00 63 1015.2
20260901141919 30 91 14.5 20.9 0.00 0.00 0.00 64 1015.2
20260901141419 30 99 12.9 27.4 0.00 0.00 0.00 63 1015.3
20260901140920 30 86 14.5 25.7 0.00 0.00 0.00 63 1015.3
20260901140419 30 76 12.9 24.1 0.00 0.00 0.00 65 1015.3
20260901135919 30 71 8.0 14.5 0.00 0.00 0.00 64 1015.3
20260901134919 30 90 17.7 25.7 0.00 0.00 0.00 61 1015.4
20260901134419 31 83 14.5 22.5 0.00 0.00 0.00 61 1015.4
20260901133920 31 111 11.3 20.9 0.00 0.00 0.00 63 1015.4
20260901133419 30 95 9.7 14.5 0.00 0.00 0.00 63 1015.5
20260901132919 30 83 14.5 20.9 0.00 0.00 0.00 61 1015.6
20260901132420 30 107 11.3 19.3 0.00 0.00 0.00 61 1015.6
20260901131919 30 102 9.7 20.9 0.00 0.00 0.00 63 1015.7
20260901131420 30 57 11.3 19.3 0.00 0.00 0.00 62 1015.7
20260901130919 30 102 11.3 20.9 0.00 0.00 0.00 64 1015.8
20260901130418 30 104 11.3 22.5 0.00 0.00 0.00 63 1015.8
20260901125419 30 102 11.3 19.3 0.00 0.00 0.00 63 1015.9
20260901124919 30 96 14.5 22.5 0.00 0.00 0.00 61 1016.0
20260901124434 30 93 11.3 20.9 0.00 0.00 0.00 62 1016.0
20260901123920 30 109 9.7 22.5 0.00 0.00 0.00 61 1016.0
20260901123430 30 96 14.5 22.5 0.00 0.00 0.00 64 1016.0
20260901122919 30 81 8.0 16.1 0.00 0.00 0.00 64 1016.0
20260901122420 30 114 16.1 22.5 0.00 0.00 0.00 62 1016.0
20260901121419 30 83 16.1 27.4 0.00 0.00 0.00 61 1016.0
20260901120934 30 73 12.9 22.5 0.00 0.00 0.00 62 1016.1
20260901120418 30 88 16.1 25.7 0.00 0.00 0.00 62 1016.2
20260901115419 30 80 12.9 20.9 0.00 0.00 0.00 61 1016.2
20260901114919 30 86 11.3 22.5 0.00 0.00 0.00 60 1016.2
20260901114419 30 96 16.1 24.1 0.00 0.00 0.00 60 1016.2
20260901113419 30 86 12.9 22.5 0.00 0.00 0.00 60 1016.3
20260901111421 30 104 9.7 24.1 0.00 0.00 0.00 60 1016.3
20260901110935 30 106 16.1 32.2 0.00 0.00 0.00 60 1016.3
20260901105419 29 90 16.1 25.7 0.00 0.00 0.00 59 1016.3
20260901104919 29 82 17.7 25.7 0.00 0.00 0.00 61 1016.3
20260901104419 30 98 14.5 27.4 0.00 0.00 0.00 61 1016.3
20260901102920 29 84 12.9 20.9 0.00 0.00 0.00 63 1016.3
20260901102434 29 69 16.1 29.0 0.00 0.00 0.00 63 1016.4
20260901101918 29 60 14.5 27.4 0.00 0.00 0.00 63 1016.4
20260901100919 29 85 14.5 22.5 0.00 0.00 0.00 64 1016.4
20260901100418 29 81 14.5 20.9 0.00 0.00 0.00 62 1016.4
20260901095919 29 90 17.7 32.2 0.00 0.00 0.00 61 1016.4
20260901095420 29 70 16.1 27.4 0.00 0.00 0.00 62 1016.5
20260901094919 28 73 16.1 25.7 0.00 0.00 0.00 61 1016.5
20260901094424 28 83 16.1 27.4 0.00 0.00 0.00 60 1016.5
20260901093921 28 69 14.5 24.1 0.00 0.00 0.00 59 1016.6
20260901093418 28 90 11.3 22.5 0.00 0.00 0.00 63 1016.6
20260901092919 28 98 12.9 25.7 0.00 0.00 0.00 61 1016.7
20260901092419 28 77 12.9 22.5 0.00 0.00 0.00 62 1016.7
20260901091419 28 77 14.5 24.1 0.00 0.00 0.00 61 1016.7
20260901090919 28 77 11.3 20.9 0.00 0.00 0.00 63 1016.8
20260901090418 27 73 14.5 24.1 0.00 0.00 0.00 62 1016.8
20260901085919 27 89 14.5 20.9 0.00 0.00 0.00 64 1016.9
20260901085418 27 75 12.9 27.4 0.00 0.00 0.00 65 1016.9
20260901084921 26 86 14.5 22.5 0.00 0.00 0.00 64 1016.9
20260901083920 26 79 14.5 22.5 0.00 0.00 0.00 63 1016.8
20260901083421 27 76 14.5 25.7 0.00 0.00 0.00 63 1016.8
20260901082418 27 88 16.1 25.7 0.00 0.00 0.00 63 1016.8
20260901081918 26 95 16.1 27.4 0.00 0.00 0.00 63 1016.7
20260901081419 26 79 14.5 25.7 0.00 0.00 0.00 63 1016.7
20260901080919 26 87 11.3 19.3 0.00 0.00 0.00 65 1016.6
20260901080419 26 73 9.7 19.3 0.00 0.00 0.00 68 1016.6
20260901075918 26 65 12.9 20.9 0.00 0.00 0.00 66 1016.6
20260901075418 26 60 9.7 19.3 0.00 0.00 0.00 68 1016.5
20260901074918 26 73 12.9 20.9 0.00 0.00 0.00 71 1016.5
20260901074418 25 55 6.4 12.9 0.00 0.00 0.00 71 1016.4
20260901073418 25 46 6.4 12.9 0.00 0.00 0.00 73 1016.3
20260901072918 25 43 6.4 12.9 0.00 0.00 0.00 74 1016.3
20260901072418 24 69 4.8 11.3 0.00 0.00 0.00 74 1016.3
20260901071918 24 58 4.8 8.0 0.00 0.00 0.00 77 1016.3
20260901070918 23 77 6.4 9.7 0.00 0.00 0.00 77 1016.2
20260901070418 23 70 3.2 11.3 0.00 0.00 0.00 78 1016.2
20260901065918 23 24 3.2 12.9 0.00 0.00 0.00 77 1016.2
20260901065417 23 75 6.4 16.1 0.00 0.00 0.00 76 1016.1
20260901064418 23 47 8.0 16.1 0.00 0.00 0.00 76 1016.0
20260901063918 23 73 8.0 19.3 0.00 0.00 0.00 75 1016.0
20260901062918 22 57 8.0 12.9 0.00 0.00 0.00 76 1016.0
20260901062418 22 69 8.0 12.9 0.00 0.00 0.00 77 1015.9
20260901061917 22 70 11.3 19.3 0.00 0.00 0.00 77 1015.9
20260901061418 22 65 8.0 14.5 0.00 0.00 0.00 77 1015.9
20260901060918 22 70 6.4 12.9 0.00 0.00 0.00 78 1015.8
20260901060418 22 69 6.4 11.3 0.00 0.00 0.00 78 1015.9
20260901055918 22 63 4.8 8.0 0.00 0.00 0.00 78 1015.8
20260901055418 22 68 6.4 11.3 0.00 0.00 0.00 78 1015.8
20260901054918 22 71 6.4 12.9 0.00 0.00 0.00 78 1015.8
20260901054418 22 86 6.4 12.9 0.00 0.00 0.00 80 1015.7
20260901053918 22 107 4.8 11.3 0.00 0.00 0.00 81 1015.7
20260901053418 21 102 4.8 9.7 0.00 0.00 0.00 82 1015.7
20260901052918 21 89 4.8 11.3 0.00 0.00 0.00 84 1015.7
20260901052418 21 87 3.2 11.3 0.00 0.00 0.00 85 1015.6
20260901051918 21 91 3.2 9.7 0.00 0.00 0.00 86 1015.6
20260901051418 21 97 3.2 4.8 0.00 0.00 0.00 87 1015.6
20260901050919 21 159 1.6 4.8 0.00 0.00 0.00 87 1015.6
20260901050419 21 159 1.6 4.8 0.00 0.00 0.00 88 1015.5
20260901045918 21 159 1.6 3.2 0.00 0.00 0.00 88 1015.5
20260901045418 21 159 1.6 4.8 0.00 0.00 0.00 89 1015.5
20260901044917 21 159 3.2 4.8 0.00 0.00 0.00 89 1015.4
20260901044417 21 167 0.0 3.2 0.00 0.00 0.00 90 1015.3
20260901043919 21 182 1.6 3.2 0.00 0.00 0.00 90 1015.3
20260901043418 21 194 0.0 4.8 0.00 0.00 0.00 90 1015.3
20260901042917 21 184 1.6 4.8 0.00 0.00 0.00 90 1015.3
20260901042419 21 203 3.2 4.8 0.00 0.00 0.00 90 1015.2
20260901041918 21 199 0.0 4.8 0.00 0.00 0.00 90 1015.1
20260901040918 21 149 1.6 4.8 0.00 0.00 0.00 91 1015.2
20260901040417 21 128 1.6 4.8 0.00 0.00 0.00 91 1015.0
20260901035917 21 67 0.0 1.6 0.00 0.00 0.00 91 1015.0
20260901034418 21 67 1.6 3.2 0.00 0.00 0.00 90 1014.7
20260901033917 21 67 1.6 4.8 0.00 0.00 0.00 90 1014.6
20260901033417 21 67 3.2 4.8 0.00 0.00 0.00 89 1014.6
20260901032918 22 68 1.6 4.8 0.00 0.00 0.00 89 1014.6
20260901032418 22 69 3.2 4.8 0.00 0.00 0.00 89 1014.6
20260901031418 22 75 4.8 8.0 0.00 0.00 0.00 88 1014.5
20260901030918 22 55 4.8 9.7 0.00 0.00 0.00 88 1014.5
20260901030417 22 81 4.8 11.3 0.00 0.00 0.00 88 1014.5
20260901025918 22 74 8.0 12.9 0.00 0.00 0.00 88 1014.5
20260901024918 22 109 3.2 8.0 0.00 0.00 0.00 88 1014.6
20260901023918 22 82 3.2 8.0 0.00 0.00 0.00 87 1014.5
20260901023417 22 87 3.2 4.8 0.00 0.00 0.00 86 1014.4
20260901022918 22 124 4.8 8.0 0.00 0.00 0.00 86 1014.4
20260901021917 22 76 4.8 8.0 0.00 0.00 0.00 86 1014.4
20260901021417 22 111 3.2 8.0 0.00 0.00 0.00 86 1014.3
20260901020918 22 107 4.8 12.9 0.00 0.00 0.00 86 1014.3
20260901020417 22 92 3.2 8.0 0.00 0.00 0.00 86 1014.3
20260901015917 22 93 4.8 11.3 0.00 0.00 0.00 87 1014.2
20260901015418 21 126 6.4 12.9 0.00 0.00 0.00 89 1014.2
20260901014417 21 114 3.2 8.0 0.00 0.00 0.00 90 1014.1
20260901013917 21 109 3.2 8.0 0.00 0.00 0.00 90 1014.1
20260901013418 21 94 4.8 8.0 0.00 0.00 0.00 90 1014.1
20260901012917 21 85 4.8 9.7 0.00 0.00 0.00 89 1014.1
20260901012418 21 83 4.8 9.7 0.00 0.00 0.00 89 1014.0
20260901011918 21 70 4.8 4.8 0.00 0.00 0.00 89 1014.0
20260901011417 21 191 3.2 4.8 0.00 0.00 0.00 89 1013.9
20260901010917 21 128 1.6 4.8 0.00 0.00 0.00 89 1013.8
20260901010418 21 147 3.2 4.8 0.00 0.00 0.00 88 1013.7
20260901005917 21 146 3.2 4.8 0.00 0.00 0.00 88 1013.7
20260901005416 21 167 3.2 4.8 0.00 0.00 0.00 88 1013.6
20260901004917 21 159 1.6 4.8 0.00 0.00 0.00 87 1013.6